Regional Weather Roundup
Issued by NWS

Home | Current Version | Previous Version | Text Only | Print | Product List | Glossary On
Versions: 1 2 3 4 5 6 7 8 9 10 11 12 13 14 15 16 17 18 19 20 21 22 23 24 25 26 27
000
ASUS45 KBOU 110207
RWRCO

WEATHER ROUNDUP FOR COLORADO
NATIONAL WEATHER SERVICE DENVER/BOULDER CO
700 PM MST SAT DEC 10 2016

NOTE: "FAIR" INDICATES FEW OR NO CLOUDS BELOW 12000 FEET WITH NO
SIGNIFICANT WEATHER AND/OR OBSTRUCTIONS TO VISIBILITY.

COZ001>005-013-030-031-110300-
...NORTHWEST COLORADO...

CITY           SKY/WX    TMP DP  RH WIND       PRES   REMARKS
CRAIG          CLOUDY    38  28  67 W6        29.86F
HAYDEN         CLOUDY    37  27  65 NW10      29.85F
MEEKER         CLOUDY    40  28  62 W8        29.88F
MOUNT WERNER   NOT AVBL
STEAMBOAT SPGS CLOUDY    35  32  89 NW8       29.86S WCI  28
WALDEN           N/A     34  28  80 CALM      29.85R
$$

COZ006>008-011-110300-
...WEST CENTRAL VALLEYS...

CITY           SKY/WX    TMP DP  RH WIND       PRES   REMARKS
GRAND JUNCTION FAIR      30  24  78 E3        29.95F
MONTROSE       CLOUDY    36  26  67 SE3       29.99S
EAGLE          LGT RAIN  34  32  93 E6        29.95F WCI  29
RIFLE          CLOUDY    32  26  78 E5        29.95F WCI  27
DELTA          CLOUDY    38  26  62 NE6       29.97S
NUCLA          FAIR      45  27  49 CALM      30.03S
$$

COZ017>023-064>068-110300-
...SOUTHWEST COLORADO...

CITY           SKY/WX    TMP DP  RH WIND       PRES   REMARKS
DURANGO        FAIR      28  20  71 N5        30.05S WCI  23
CORTEZ         FAIR      33  26  75 E5        30.04R WCI  29
PAGOSA SPRINGS FAIR      31  25  77 CALM      30.08S
TELLURIDE      CLOUDY    39  19  43 CALM      30.08R
WOLF CREEK PAS FAIR      19  19 100 SW22G32   30.14S WCI   3
$$

COZ009-010-012-014-032>034-037-058>063-110300-
...CENTRAL COLORADO...

CITY           SKY/WX    TMP DP  RH WIND       PRES   REMARKS
ASPEN          CLOUDY    33  31  92 CALM      29.93F
BUENA VISTA    FAIR      39  27  62 W13G25    29.92S
COPPER MTN     NOT AVBL
BERTHOUD PASS  LGT SNOW  21   9  58 W21       29.93S VSB 3/4 WCI   6
COTTONWOOD PAS LGT SNOW  34  30  86 W23G30    29.94F WCI  22
GUNNISON       MOCLDY    27  21  78 W6        30.01F WCI  20
KREMMLING      DRIZZLE   41  34  75 W10G23    29.88F
LEADVILLE      LGT SNOW  30  28  92 CALM      29.95S VSB 1
MONARCH PASS   LGT SNOW  23  19  86 W32       30.14S WCI   5
SALIDA         FAIR      47  19  33 W16G23    29.99R
SUNLIGHT       SNOW      27  25  93 SW17G31   30.00S VSB 1/2 WCI  14
WILKERSON PASS FAIR      28  23  80 W10G20    29.98F WCI  19
$$

COZ069>075-110300-
...SAN LUIS VALLEY/SANGRE DE CRISTO MOUNTAINS...

CITY           SKY/WX    TMP DP  RH WIND       PRES   REMARKS
ALAMOSA        FAIR      40  16  37 S7        29.97R
LA VETA PASS   FAIR      34  18  51 NE24G45   29.95S WCI  21
SAGUACHE       FAIR      30  19  64 SE5       29.97R WCI  25
$$

COZ035-036-038>040-110300-
...NORTHERN COLORADO FRONT RANGE...

CITY           SKY/WX    TMP DP  RH WIND       PRES   REMARKS
DENVER INTL AP MOCLDY    46  29  51 NW9       29.71F
DMNS CITY PARK   N/A     47  28  46 E14       29.71F
AURORA         MOCLDY    48  27  44 SE3       29.73S
FRONT RANGE AP MOCLDY    43  28  56 SE3       29.74S
ERIE MUNI ARPT FAIR      52  29  41 W13G24    29.71S
BOULDER MUN AP FAIR      52  30  43 W12G25    29.69F
CENTENNIAL     MOCLDY    48  27  44 CALM      29.74R
BROOMFIELD     MOCLDY    52  28  40 N10       29.72F
FORT COLLINS   FAIR      34  25  69 NW5       29.70F WCI  30
LONGMONT       NOT AVBL
$$

COZ041-046-047-076>085-087-088-110300-
...PIKES PEAK/PALMER DIVIDE AND SOUTHERN FOOTHILLS...

CITY           SKY/WX    TMP DP  RH WIND       PRES   REMARKS
COLO. SPRINGS  MOCLDY    57  22  25 NW15G32   29.73S
A. F. ACADEMY  FAIR      51  22  31 W18G33    29.75R
SCHRIEVER AFB  NOT AVBL
ELLICOTT       FAIR     N/A N/A N/A E12G18    29.74R
FALCON         FAIR      46  22  37 NE8       29.79R
FORT CARSON    FAIR      54  21  27 NE5       29.71R
LIMON          FAIR      34  21  59 VRB3      29.73S
MONUMENT HILL  FAIR      37  27  65 NW8       29.80R
TRINIDAD       FAIR      58   7  13 VRB3      29.77F
$$

COZ042>045-048>051-090-091-110300-
...NORTHEAST COLORADO...

CITY           SKY/WX    TMP DP  RH WIND       PRES   REMARKS
GREELEY ARPT   FAIR      26  23  88 NW3       29.72F
AKRON          FAIR      39  26  59 NE3       29.71S
BURLINGTON     FAIR      31  21  66 CALM      29.73R
WRAY           NOT AVBL
STERLING       FAIR      30  27  86 SW6       29.70F WCI  24
HOLYOKE        FAIR      32  28  86 S3        29.73S
FORT MORGAN    FAIR      28  23  81 CALM      29.72S
$$

COZ086-089-092>099-110300-
...SOUTHEAST COLORADO...

CITY           SKY/WX    TMP DP  RH WIND       PRES   REMARKS
PUEBLO         FAIR      54  17  23 W9G18     29.71R
LA JUNTA       FAIR      41  20  43 NW3       29.69S
LAMAR          FAIR      34  23  64 E8        29.67F WCI  27
SPRINGFIELD      N/A     51  24  34 SW14G20   29.71F
$$




USA.gov is the U.S. government's official web portal to all federal, state and local government web resources and services.